EA1DB-1 Weather Reports


time (UTC)temp
C
wind
direction
speed
KPH
gust
KPH
rain 1hr
cm
rain 24hr
cm
rain mn
cm
humidity
%
barometer
mb
20260507085637 16 0.0 0.0 0.00 0.00 0.00 61 1005.1
20260507084614 16 0.0 0.0 0.00 0.00 0.00 64 1005.4
20260507083638 16 0.0 0.0 0.00 0.00 0.00 66 1005.4
20260507082614 15 0.0 0.0 0.00 0.00 0.00 69 1005.4
20260507081637 15 0.0 0.0 0.00 0.00 0.00 72 1005.4
20260507080613 14 0.0 0.0 0.00 0.00 0.00 75 1005.4
20260507075637 13 0.0 0.0 0.00 0.00 0.00 76 1005.5
20260507074633 13 0.0 0.0 0.00 0.00 0.00 78 1005.7
20260507073637 12 0.0 0.0 0.00 0.00 0.00 79 1005.6
20260507072613 12 0.0 0.0 0.00 0.00 0.00 81 1005.7
20260507071657 10 0.0 0.0 0.00 0.00 0.00 77 1005.6
20260507070633 10 0.0 0.0 0.00 0.00 0.00 77 1005.7
20260507065637 10 0.0 0.0 0.00 0.00 0.00 77 1005.8
20260507064614 10 0.0 0.0 0.00 0.00 0.00 77 1006.1
20260507063639 10 0.0 0.0 0.00 0.00 0.00 77 1005.9
20260507062613 10 135 0.0 1.6 0.00 0.00 0.00 77 1006.2
20260507061637 10 0.0 0.0 0.00 0.00 0.00 77 1005.9
20260507060613 10 0.0 1.6 0.00 0.00 0.00 77 1006.0
20260507055637 10 90 1.6 4.8 0.00 0.00 0.00 77 1006.2
20260507054613 10 135 0.0 1.6 0.00 0.00 0.00 77 1006.0
20260507053638 10 0.0 0.0 0.00 0.00 0.00 77 1006.0
20260507052634 10 0.0 1.6 0.00 0.00 0.00 77 1006.1
20260507051658 10 0.0 0.0 0.00 0.00 0.00 77 1006.1
20260507050613 10 112 1.6 3.2 0.00 0.00 0.00 77 1006.1
20260507045637 10 0.0 0.0 0.00 0.00 0.00 77 1006.3
20260507044613 10 135 0.0 3.2 0.00 0.00 0.00 77 1006.0
20260507043637 10 135 0.0 1.6 0.00 0.00 0.00 77 1006.2
20260507042613 10 0.0 0.0 0.00 0.00 0.00 77 1006.3
20260507041659 10 0.0 0.0 0.00 0.00 0.00 77 1006.4
20260507040615 10 0.0 0.0 0.00 0.00 0.00 77 1006.4
20260507035637 10 0.0 0.0 0.00 0.00 0.00 77 1006.4
20260507034613 10 270 1.6 3.2 0.00 0.00 0.00 77 1006.4
20260507033718 10 0.0 0.0 0.00 0.00 0.00 77 1006.5
20260507032613 11 0.0 0.0 0.00 0.00 0.00 76 1006.6
20260507031657 11 0.0 0.0 0.00 0.00 0.00 76 1006.5
20260507030613 11 0.0 0.0 0.00 0.00 0.00 76 1006.5
20260507025637 11 0.0 0.0 0.00 0.00 0.00 76 1006.5
20260507024613 11 0.0 1.6 0.00 0.00 0.00 76 1006.5
20260507023637 11 135 0.0 3.2 0.00 0.00 0.00 74 1006.6
20260507022613 11 0.0 0.0 0.00 0.00 0.00 74 1006.6
20260507021638 11 0.0 0.0 0.00 0.00 0.00 74 1006.6
20260507020614 11 0.0 0.0 0.00 0.00 0.00 72 1006.7
20260507015637 11 0.0 0.0 0.00 0.00 0.00 72 1006.9
20260507014613 12 0.0 0.0 0.00 0.00 0.00 72 1006.9
20260507013637 12 0.0 0.0 0.00 0.00 0.00 71 1007.0
20260507012613 12 0.0 0.0 0.00 0.00 0.00 71 1007.2
20260507011658 12 0.0 0.0 0.00 0.00 0.00 71 1007.2
20260507010614 12 0.0 1.6 0.00 0.00 0.00 70 1007.3
20260507005637 12 135 0.0 1.6 0.00 0.00 0.00 68 1007.5
20260507004613 12 0.0 1.6 0.00 0.00 0.00 68 1007.3
20260507003637 12 0.0 0.0 0.00 0.00 0.00 68 1007.3
20260507002613 13 112 1.6 3.2 0.00 0.00 0.00 68 1007.5
20260507001637 13 0.0 1.6 0.00 0.00 0.00 68 1007.5
20260507000613 13 135 0.0 1.6 0.00 0.00 0.00 67 1007.6
20260506235658 13 0.0 1.6 0.00 0.00 0.00 67 1007.7
20260506234614 13 135 0.0 4.8 0.00 0.00 0.00 67 1007.7
20260506233638 13 0.0 0.0 0.00 0.00 0.00 67 1007.8
20260506232634 13 0.0 0.0 0.00 0.00 0.00 67 1007.9
20260506231637 13 0.0 1.6 0.00 0.00 0.00 65 1007.9
20260506230633 13 0.0 0.0 0.00 0.00 0.00 65 1008.1
20260506225637 13 0.0 0.0 0.00 0.00 0.00 65 1008.1
20260506224613 13 0.0 0.0 0.00 0.00 0.00 65 1008.1
20260506223657 14 135 0.0 4.8 0.00 0.00 0.00 65 1008.2
20260506222613 14 0.0 1.6 0.00 0.00 0.00 65 1008.2
20260506221637 14 0.0 0.0 0.00 0.00 0.00 65 1008.1
20260506220615 14 0.0 0.0 0.00 0.00 0.00 65 1008.1
20260506215637 14 0.0 0.0 0.00 0.00 0.00 65 1008.4
20260506214614 14 90 0.0 4.8 0.00 0.00 0.00 65 1008.4
20260506213638 15 0.0 1.6 0.00 0.00 0.00 64 1008.5
20260506212634 15 0.0 1.6 0.00 0.00 0.00 63 1008.5
20260506211638 15 90 1.6 4.8 0.00 0.00 0.00 63 1008.4
20260506210613 15 0.0 0.0 0.00 0.00 0.00 63 1008.5
20260506205637 15 0.0 1.6 0.00 0.00 0.00 63 1008.5
20260506204613 15 0.0 0.0 0.00 0.00 0.00 63 1008.5
20260506203638 15 0.0 1.6 0.00 0.00 0.00 63 1008.5
20260506202613 15 135 0.0 3.2 0.00 0.00 0.00 62 1008.3
20260506201637 15 90 0.0 4.8 0.00 0.00 0.00 62 1008.3
20260506200654 15 135 0.0 3.2 0.00 0.00 0.00 60 1008.2
20260506195638 15 0.0 1.6 0.00 0.00 0.00 58 1008.2
20260506194614 15 0.0 0.0 0.00 0.00 0.00 58 1008.3
20260506193637 15 0.0 0.0 0.00 0.00 0.00 57 1008.2
20260506192613 16 0.0 0.0 0.00 0.00 0.00 57 1008.4
20260506191637 16 0.0 0.0 0.00 0.00 0.00 57 1008.4
20260506190613 16 0.0 1.6 0.00 0.00 0.00 57 1008.2
20260506185637 16 0.0 0.0 0.00 0.00 0.00 56 1008.3
20260506184614 16 0.0 0.0 0.00 0.00 0.00 55 1008.1
20260506183637 16 0.0 0.0 0.00 0.00 0.00 55 1008.2
20260506182613 16 0.0 0.0 0.00 0.00 0.00 55 1008.2
20260506181638 16 0.0 0.0 0.00 0.00 0.00 55 1008.3
20260506180633 16 0.0 0.0 0.00 0.00 0.00 54 1008.3
20260506175638 17 0.0 1.6 0.00 0.00 0.00 55 1008.2
20260506174634 17 0.0 0.0 0.00 0.00 0.00 55 1008.4
20260506173638 17 0.0 1.6 0.00 0.00 0.00 56 1008.2
20260506172634 17 0.0 3.2 0.00 0.00 0.00 56 1008.2
20260506171658 17 0.0 3.2 0.00 0.00 0.00 56 1008.4
20260506170613 17 135 0.0 3.2 0.00 0.00 0.00 55 1008.4
20260506165637 18 0.0 0.0 0.00 0.00 0.00 55 1008.5
20260506164613 18 90 0.0 3.2 0.00 0.00 0.00 51 1008.5
20260506163637 19 135 0.0 3.2 0.00 0.00 0.00 50 1008.4
20260506162633 19 0.0 1.6 0.00 0.00 0.00 49 1008.4
20260506161637 18 0.0 0.0 0.00 0.00 0.00 50 1008.7
20260506160614 18 0.0 1.6 0.00 0.00 0.00 50 1008.8
20260506155638 18 225 1.6 3.2 0.00 0.00 0.00 50 1008.7
20260506154614 19 157 3.2 4.8 0.00 0.00 0.00 48 1008.8
20260506153622 19 225 0.0 4.8 0.00 0.00 0.00 52 1008.8
20260506152614 18 202 0.0 1.6 0.00 0.00 0.00 52 1009.2
20260506151637 18 225 1.6 4.8 0.00 0.00 0.00 55 1009.3
20260506150618 17 292 1.6 4.8 0.00 0.00 0.00 57 1009.5
20260506145703 16 0.0 0.0 0.00 0.00 0.00 60 1009.6
20260506144614 16 270 0.0 3.2 0.00 0.00 0.00 62 1009.5
20260506143637 16 0.0 0.0 0.00 0.00 0.00 60 1009.8
20260506142613 17 157 1.6 4.8 0.00 0.00 0.00 58 1010.0
20260506141637 17 135 0.0 4.8 0.00 0.00 0.00 58 1010.1
20260506140613 17 0.0 3.2 0.00 0.00 0.00 58 1010.3
20260506135637 17 270 0.0 3.2 0.00 0.00 0.00 59 1010.3
20260506134613 17 225 3.2 4.8 0.00 0.00 0.00 57 1010.4
20260506133637 18 180 0.0 1.6 0.00 0.00 0.00 57 1010.5
20260506132613 18 0.0 1.6 0.00 0.00 0.00 55 1010.3
20260506131637 19 180 1.6 6.4 0.00 0.00 0.00 54 1010.1
20260506130613 19 315 3.2 11.3 0.00 0.00 0.00 54 1010.4
20260506125637 19 0.0 0.0 0.00 0.00 0.00 54 1010.3
20260506124613 18 180 0.0 3.2 0.00 0.00 0.00 54 1010.2
20260506123637 18 225 4.8 9.7 0.00 0.00 0.00 53 1010.4
20260506122613 18 225 0.0 4.8 0.00 0.00 0.00 49 1010.4
20260506121657 18 0.0 1.6 0.00 0.00 0.00 48 1010.6
20260506120613 19 0.0 1.6 0.00 0.00 0.00 48 1010.7
20260506115657 18 0.0 0.0 0.00 0.00 0.00 49 1010.6
20260506114613 18 270 1.6 4.8 0.00 0.00 0.00 48 1010.7
20260506113637 18 0.0 0.0 0.00 0.00 0.00 47 1010.9
20260506112613 18 0.0 1.6 0.00 0.00 0.00 48 1011.0
20260506111657 18 270 0.0 3.2 0.00 0.00 0.00 48 1011.1
20260506110615 18 270 3.2 8.0 0.00 0.00 0.00 50 1011.0
20260506105637 18 270 1.6 4.8 0.00 0.00 0.00 49 1011.1
20260506104613 18 0.0 3.2 0.00 0.00 0.00 52 1011.2
20260506103637 17 0.0 0.0 0.00 0.00 0.00 52 1011.1
20260506102613 17 0.0 0.0 0.00 0.00 0.00 51 1011.3
20260506101637 17 0.0 0.0 0.00 0.00 0.00 51 1011.5
20260506100613 17 0.0 1.6 0.00 0.00 0.00 52 1011.4
20260506095637 17 180 0.0 1.6 0.00 0.00 0.00 52 1011.3
20260506094613 17 225 0.0 3.2 0.00 0.00 0.00 51 1011.4
20260506093637 17 90 0.0 3.2 0.00 0.00 0.00 52 1011.3
20260506092633 16 0.0 0.0 0.00 0.00 0.00 52 1011.4
20260506091637 16 0.0 0.0 0.00 0.00 0.00 54 1011.2
20260506090905 16 0.0 3.2 0.00 0.00 0.00 56 1011.3